DW4909 Weather Reports


time (UTC)temp
F
wind
direction
speed
knots
gust
knots
rain 1hr
in
rain 24hr
in
rain mn
in
humidity
%
barometer
mb
20260506001502 73 141 0.0 3.5 0.00 0.00 0.00 34 1013.4
20260506000107 74 110 0.0 6.1 0.00 0.00 0.00 33 1013.3
20260505234557 76 141 0.0 3.5 0.00 0.00 0.00 30 1013.4
20260505233109 77 97 0.0 4.3 0.00 0.00 0.00 29 1013.4
20260505231553 78 158 1.7 7.0 0.00 0.00 0.00 28 1013.4
20260505230051 78 161 0.9 6.1 0.00 0.00 0.00 28 1013.5
20260505224549 79 169 0.0 8.7 0.00 0.00 0.00 27 1013.4
20260505223049 80 133 2.6 8.7 0.00 0.00 0.00 26 1013.3
20260505221543 80 151 2.6 10.4 0.00 0.00 0.00 25 1013.5
20260505220043 81 123 1.7 5.2 0.00 0.00 0.00 25 1013.4
20260505214537 81 176 0.9 9.6 0.00 0.00 0.00 26 1013.4
20260505213035 81 292 1.7 13.0 0.00 0.00 0.00 26 1013.7
20260505211530 82 143 2.6 5.2 0.00 0.00 0.00 25 1013.6
20260505210025 81 181 1.7 6.1 0.00 0.00 0.00 25 1013.9
20260505204522 80 91 1.7 9.6 0.00 0.00 0.00 26 1014.1
20260505203026 79 116 3.5 11.3 0.00 0.00 0.00 26 1014.1
20260505201515 79 103 4.3 9.6 0.00 0.00 0.00 26 1014.3
20260505200014 79 159 2.6 10.4 0.00 0.00 0.00 27 1014.4
20260505194508 80 88 3.5 7.8 0.00 0.00 0.00 26 1014.5
20260505193004 80 64 2.6 9.6 0.00 0.00 0.00 28 1014.8
20260505191503 81 42 1.7 10.4 0.00 0.00 0.00 25 1014.9
20260505190059 81 128 5.2 9.6 0.00 0.00 0.00 23 1015.1
20260505184601 81 124 3.5 9.6 0.00 0.00 0.00 25 1015.1
20260505183052 80 221 0.9 6.1 0.00 0.00 0.00 27 1015.5
20260505181548 80 165 0.0 7.0 0.00 0.00 0.00 28 1015.6
20260505180046 79 309 1.7 7.0 0.00 0.00 0.00 28 1015.8
20260505174543 79 56 0.9 7.8 0.00 0.00 0.00 28 1015.8
20260505173041 79 215 2.6 7.8 0.00 0.00 0.00 26 1015.8
20260505171546 79 113 2.6 7.0 0.00 0.00 0.00 30 1015.7
20260505170038 79 137 0.9 7.0 0.00 0.00 0.00 28 1016.0
20260505164538 79 143 3.5 7.0 0.00 0.00 0.00 29 1016.0
20260505163034 77 347 0.9 8.7 0.00 0.00 0.00 32 1016.2
20260505161524 77 316 0.9 5.2 0.00 0.00 0.00 32 1016.6
20260505153022 76 335 0.9 4.3 0.00 0.00 0.00 41 1016.8
20260505151510 74 356 1.7 7.0 0.00 0.00 0.00 44 1017.0
20260505124521 60 221 0.0 2.6 0.00 0.00 0.00 63 1017.0
20260505123018 57 113 0.0 2.6 0.00 0.00 0.00 68 1017.0
20260505121510 54 157 0.0 0.9 0.00 0.00 0.00 72 1016.9
20260505120007 52 158 0.0 0.9 0.00 0.00 0.00 73 1016.7
20260505114504 50 112 0.0 0.0 0.00 0.00 0.00 74 1016.6
20260505113000 49 112 0.0 0.0 0.00 0.00 0.00 73 1016.4
20260505111559 47 112 0.0 0.0 0.00 0.00 0.00 73 1016.5
20260505101548 46 112 0.0 0.0 0.00 0.00 0.00 72 1016.0
20260505100045 46 112 0.0 0.0 0.00 0.00 0.00 71 1016.0
20260505094540 47 112 0.0 0.0 0.00 0.00 0.00 71 1015.6
20260505093038 46 112 0.0 0.0 0.00 0.00 0.00 68 1015.5
20260505091537 46 112 0.0 0.0 0.00 0.00 0.00 63 1015.3
20260505090029 47 112 0.0 0.0 0.00 0.00 0.00 63 1015.5
20260505084541 48 112 0.0 0.0 0.00 0.00 0.00 62 1015.5
20260505083041 48 112 0.0 0.0 0.00 0.00 0.00 62 1015.4
20260505081521 49 112 0.0 0.0 0.00 0.00 0.00 61 1015.4
20260505080024 50 112 0.0 1.7 0.00 0.00 0.00 61 1015.4
20260505074509 50 98 0.0 0.0 0.00 0.00 0.00 62 1015.3
20260505073017 50 98 0.0 0.0 0.00 0.00 0.00 62 1015.1
20260505071503 50 98 0.0 0.0 0.00 0.00 0.00 64 1015.1
20260505070057 52 98 0.0 0.0 0.00 0.00 0.00 63 1015.1
20260505064551 53 98 0.0 0.0 0.00 0.00 0.00 63 1015.0
20260505063052 54 98 0.0 0.9 0.00 0.00 0.00 62 1015.1
20260505061544 55 98 0.0 0.9 0.00 0.00 0.00 60 1015.2
20260505060056 55 143 0.0 0.9 0.00 0.00 0.00 59 1015.3
20260505054536 55 146 0.0 1.7 0.00 0.00 0.00 60 1015.4
20260505053037 54 113 0.0 0.0 0.00 0.00 0.00 60 1015.6
20260505051530 54 113 0.0 0.0 0.00 0.00 0.00 60 1015.7
20260505041513 56 148 0.0 0.0 0.00 0.00 0.00 56 1015.8
20260505040013 56 148 0.0 0.0 0.00 0.00 0.00 55 1016.0
20260505034506 56 148 0.0 0.9 0.00 0.00 0.00 53 1015.7
20260505033004 56 129 0.0 0.0 0.00 0.00 0.00 54 1015.7
20260505031503 55 152 0.0 0.9 0.00 0.00 0.00 57 1015.8
20260505030002 55 110 0.0 0.0 0.00 0.00 0.00 55 1015.6
20260505024601 55 110 0.0 0.0 0.00 0.00 0.00 54 1015.6
20260505023058 56 110 0.0 0.0 0.00 0.00 0.00 53 1015.6
20260505021557 56 110 0.0 0.0 0.00 0.00 0.00 53 1015.5
20260505020100 57 110 0.0 0.0 0.00 0.00 0.00 51 1015.4
20260505014607 59 110 0.0 0.0 0.00 0.00 0.00 47 1015.3
20260505013054 60 110 0.0 0.0 0.00 0.00 0.00 44 1015.1
20260505011550 60 110 0.0 0.9 0.00 0.00 0.00 45 1015.0
20260505010054 60 126 0.0 0.0 0.00 0.00 0.00 44 1014.8
20260505004647 62 126 0.0 0.0 0.00 0.00 0.00 40 1014.5
20260505003056 64 126 0.0 0.0 0.00 0.00 0.00 35 1014.3